Weather History for Caldwell, NJ

Change the Weather History Date:

Wednesday, February 20, 2013

  Actual Average Record
Temperature  
Mean Temperature 30 °F -  
Max Temperature 36 °F 44 °F 63 °F (1981)
Min Temperature 24 °F 24 °F 4 °F (1958)
Degree Days  
Heating Degree Days 34    
Moisture  
Dew Point 11 °F    
Average Humidity 47    
Maximum Humidity 58    
Minimum Humidity 40    
Precipitation  
Precipitation 0.00 in - - ()
Sea Level Pressure  
Sea Level Pressure 29.88 in    
Wind  
Wind Speed 14 mph (WNW)    
Max Wind Speed 21 mph    
Max Gust Speed 32 mph    
Visibility 10 miles    
Events      
Averages and records for this station are not official NWS values.
T = Trace of Precipitation, MM = Missing Value Source: NWS Daily Summary

Daily Weather History Graph

Daily Weather History Graph

Search for Another Location

Airport:

Trip Planner

Search our weather history database for the weather conditions in past years. The results will help you decide how hot, cold, wet, or windy it might be!

Date:

Astronomy

Feb. 20, 2013 Rise Set
Actual Time 6:44 AM EST 5:38 PM EST
Civil Twilight 6:16 AM EST 6:05 PM EST
Nautical Twilight 5:44 AM EST 6:37 PM EST
Astronomical Twilight 5:12 AM EST 7:09 PM EST
Moon 12:56 PM EST (2/20) 3:03 AM EST (2/20)
Length of Visible Light 11h 49m
Length of Day
10h 53m
Waxing Gibbous, 76% of the Moon is Illuminated
Feb 20
Waxing Gibbous
Feb 25
Full
Mar 4
Last Quarter
Mar 11
New
Mar 19
First Quarter

Hourly Weather History & Observations

Time (EST) Temp. Windchill Dew Point Humidity Pressure Visibility Wind Dir Wind Speed Gust Speed Precip Events Conditions
12:53 AM 36.0 °F 29.0 °F 19.9 °F 52% 29.75 in 10.0 mi West 9.2 mph - N/A   Clear
1:53 AM 34.0 °F 24.6 °F 19.0 °F 54% 29.76 in 10.0 mi WNW 13.8 mph 20.7 mph N/A   Clear
2:53 AM 33.1 °F 21.5 °F 19.0 °F 56% 29.78 in 10.0 mi WNW 19.6 mph 27.6 mph N/A   Partly Cloudy
3:53 AM 30.9 °F 20.2 °F 15.1 °F 52% 29.79 in 10.0 mi West 15.0 mph 25.3 mph N/A   Clear
4:53 AM 30.0 °F 19.1 °F 12.9 °F 49% 29.81 in 10.0 mi WNW 15.0 mph 21.9 mph N/A   Clear
5:53 AM 30.0 °F 20.5 °F 14.0 °F 51% 29.82 in 10.0 mi West 11.5 mph 17.3 mph N/A   Clear
6:53 AM 28.9 °F 19.8 °F 15.1 °F 56% 29.84 in 10.0 mi West 10.4 mph 16.1 mph N/A   Clear
7:53 AM 28.9 °F 16.1 °F 10.0 °F 45% 29.88 in 10.0 mi WNW 19.6 mph 26.5 mph N/A   Overcast
8:53 AM 28.9 °F 16.5 °F 8.1 °F 41% 29.88 in 10.0 mi WNW 18.4 mph 27.6 mph N/A   Clear
9:53 AM 30.0 °F 18.7 °F 8.1 °F 40% 29.89 in 10.0 mi NW 16.1 mph 32.2 mph N/A   Scattered Clouds
10:53 AM 28.9 °F 17.7 °F 10.0 °F 45% 29.88 in 10.0 mi West 15.0 mph 28.8 mph N/A   Overcast
11:53 AM 28.9 °F 17.7 °F 8.1 °F 41% 29.88 in 10.0 mi WNW 15.0 mph 27.6 mph N/A   Overcast
12:53 PM 30.0 °F 17.2 °F 8.1 °F 40% 29.87 in 10.0 mi West 20.7 mph 29.9 mph N/A   Overcast
1:53 PM 30.0 °F 18.3 °F 8.1 °F 40% 29.87 in 10.0 mi NW 17.3 mph 26.5 mph N/A   Overcast
2:53 PM 30.0 °F 19.1 °F 9.0 °F 41% 29.89 in 10.0 mi WNW 15.0 mph 26.5 mph N/A   Overcast
3:53 PM 28.9 °F 16.9 °F 8.1 °F 41% 29.91 in 10.0 mi WNW 17.3 mph 26.5 mph N/A   Overcast
4:53 PM 28.9 °F 16.5 °F 8.1 °F 41% 29.91 in 10.0 mi WNW 18.4 mph 26.5 mph N/A   Mostly Cloudy
5:53 PM 28.0 °F 17.5 °F 10.0 °F 47% 29.94 in 10.0 mi WNW 12.7 mph 26.5 mph N/A   Overcast
6:53 PM 27.0 °F 16.1 °F 14.0 °F 58% 29.98 in 10.0 mi WNW 12.7 mph 20.7 mph N/A   Overcast
7:53 PM 27.0 °F 16.1 °F 12.9 °F 56% 29.99 in 10.0 mi WNW 12.7 mph 21.9 mph N/A   Mostly Cloudy
8:53 PM 26.1 °F 16.8 °F 6.1 °F 43% 29.99 in 10.0 mi NW 9.2 mph 24.2 mph N/A   Clear
9:53 PM 25.0 °F 16.3 °F 6.1 °F 45% 29.99 in 10.0 mi NW 8.1 mph - N/A   Clear
11:53 PM 24.1 °F 13.7 °F 9.0 °F 53% 30.01 in 10.0 mi NW 10.4 mph 19.6 mph N/A   Partly Cloudy